Retour au catalogue

ONEWEB-0262

ActifCommunicationsPO
NORAD 48980·PAYLOAD·🇬🇧 United Kingdom

Lancé Jul 1, 2021 depuis Vostochny Cosmodrome

Loading…

Prochains Passages (prochaines 24 heures)

TLE

FraisSource: CelesTrak SupGP

Époque: Sep 14, 2026, 17:22 UTC

1 48980C 21060P   26257.72378889  .00003638  00000+0  95291-2 0  2576
2 48980  87.9150 210.9915 0001889  73.4777 324.2718 13.16589258    15

Suivez ONEWEB-0262 en temps réel avec AllMySat

Download on the App Store